Tracking 17150 objects as of 4-August-2015
HD Live streaming from Space Station

THORAD AGENA D DEB

Track THORAD AGENA D DEB now!
10-day predictions
THORAD AGENA D DEB is classified as:


NORAD ID: 4171
Int'l Code: 1969-082AP
Perigee: 767.4 km
Apogee: 826.9 km
Inclination: 70.1 °
Period: 100.7 minutes
Semi major axis: 7168 km
RCS: 0.0461 m2 (small)
Launch date: September 30, 1969
Source: United States (US)

Note: This is SATELLITE DEBRIS
Your satellite tracking list
Your tracking list is empty





NASA's NSSDC Master Catalog

Two Line Element Set (TLE):
1 04171U 69082AP  15216.21930664  .00000397  00000-0  17253-3 0  9994
2 04171 070.0792 154.8892 0041541 264.4125 095.2261 14.30521344371111

Source of the keplerian elements: AFSPC

N2YO: 435